Location: Chicago
(41.8500°N, 87.6500°W)
Time: 17:58:15
(UTC-05:00)

ISS - Visible Passes

Search period start: 30 March 2015 00:00
Search period end: 09 April 2015 00:00
Orbit: 396 x 405 km, 51.6° (Epoch: 30 March)

Date Brightness Start Highest point End Pass type
(mag) Time Alt. Az. Time Alt. Az. Time Alt. Az.
30 Mar -2.3 04:35:23 43° NNE 04:35:23 43° NNE 04:38:26 10° ESE visible
31 Mar -3.0 05:17:27 35° W 05:18:17 44° SW 05:21:22 10° SSE visible
01 Apr -1.0 04:27:09 18° SE 04:27:09 18° SE 04:28:07 10° SE visible
02 Apr -0.8 05:09:50 11° S 05:09:50 11° S 05:09:56 10° S visible
02 Apr -1.1 20:09:23 10° SSE 20:09:51 11° SE 20:09:51 11° SE visible
03 Apr -3.1 20:49:51 10° SW 20:52:42 48° SSE 20:52:42 48° SSE visible
04 Apr -2.2 19:56:50 10° SSW 19:59:34 25° SE 20:02:21 10° ENE visible
04 Apr -1.7 21:32:45 10° W 21:35:09 34° WNW 21:35:09 34° WNW visible
05 Apr -3.1 20:38:57 10° WSW 20:42:12 71° NW 20:44:37 17° NE visible
05 Apr 0.0 22:16:37 10° WNW 22:17:14 13° NW 22:17:14 13° NW visible
06 Apr -3.2 19:45:24 10° SW 19:48:36 59° SE 19:51:50 10° ENE visible
06 Apr -1.2 21:22:26 10° WNW 21:25:12 25° NNW 21:26:22 20° NNE visible
07 Apr -1.8 20:28:20 10° W 20:31:24 36° NNW 20:34:28 10° NE visible
07 Apr -0.3 22:06:24 10° NW 22:07:52 15° NNW 22:07:52 15° NNW visible
08 Apr -0.7 21:12:09 10° WNW 21:14:31 18° NNW 21:16:35 11° NNE visible
